Tracking 22287 objects as of 27-Jan-2021
HD Live streaming from Space Station
objects crossing your sky now

COSMOS 1711 (GLONASS)

Track COSMOS 1711 (GLONASS) now!
COSMOS 1711 (GLONASS) is classified as:


NORAD ID: 16397
Int'l Code: 1985-118B
Perigee: 19,113.4 km
Apogee: 19,160.8 km
Inclination: 66.3 °
Period: 675.7 minutes
Semi major axis: 25508 km
RCS: 0.7803 m2 (medium)
Launch date: December 24, 1985
Source: Commonwealth of Independent States (former USSR) (CIS)
Launch site: TYURATAM MISSILE AND SPACE COMPLEX (TTMTR)
aabbcc
Your satellite tracking list
Your tracking list is empty




NASA's NSSDC Master Catalog

Two Line Element Set (TLE):
1 16397U 85118B   21025.54137378 -.00000018  00000-0  00000-0 0  9997
2 16397  66.2785  29.1706 0009285 203.9360 297.5069  2.13101320272804
Source of the keplerian elements: AFSPC